Weather History for KM19 - October, 2012

Change the Weather History Date:

Thursday, October 4, 2012

  Actual Average (KJBR) Record (KJBR)
Temperature  
Mean Temperature 66 °F 65 °F  
Max Temperature 82 °F 77 °F 98 °F (1897)
Min Temperature 51 °F 53 °F 35 °F (1987)
Degree Days  
Heating Degree Days 0 3  
Month to date heating degree days 11  
Since 1 July heating degree days 29  
Cooling Degree Days 2 3  
Month to date cooling degree days 13  
Year to date cooling degree days 1784  
Growing Degree Days 16 (Base 50)    
Moisture  
Dew Point 55 °F    
Average Humidity 78    
Maximum Humidity 100    
Minimum Humidity 37    
Precipitation  
Precipitation 0.00 in 0.14 in 3.75 in (1932)
Month to date precipitation 0.60  
Year to date precipitation 34.77  
Snow  
Snow 0.00 in 0.00 in 0.00 in (2002)
Month to date snowfall 0.0  
Since 1 July snowfall 0.0  
Since 1 September snowfall 0.0  
Snow Depth -    
Sea Level Pressure  
Sea Level Pressure 30.18 in    
Wind  
Wind Speed 5 mph (South)    
Max Wind Speed 14 mph    
Max Gust Speed 17 mph    
Visibility 8 miles    
Events Fog    
T = Trace of Precipitation, MM = Missing Value Source: NWS Daily Summary

Daily Weather History Graph

Daily Weather History Graph

Search for Another Location

Airport or City:

Trip Planner

Search our weather history database for the weather conditions in past years. The results will help you decide how hot, cold, wet, or windy it might be!

Date:

Astronomy

Oct. 04, 2012 Rise Set
Actual Time 7:02 AM CDT 6:43 PM CDT
Civil Twilight 6:36 AM CDT 7:08 PM CDT
Nautical Twilight 6:07 AM CDT 7:38 PM CDT
Astronomical Twilight 5:37 AM CDT 8:08 PM CDT
Moon 9:28 PM CDT (10/4) 11:10 AM CDT (10/4)
Length of Visible Light 12h 31m
Length of Day
11h 41m
Waning Gibbous, 82% of the Moon is Illuminated
Oct 4
Waning Gibbous
Oct 8
Last Quarter
Oct 15
New
Oct 21
First Quarter
Oct 29
Full

Hourly Weather History & Observations

Time (CDT) Temp. Heat Index Dew Point Humidity Pressure Visibility Wind Dir Wind Speed Gust Speed Precip Events Conditions
12:56 AM 55.9 °F - 52.9 °F 89% 30.13 in 10.0 mi SSW 4.6 mph - N/A   Clear
1:56 AM 55.9 °F - 54.0 °F 93% 30.13 in 10.0 mi South 5.8 mph - N/A   Clear
2:56 AM 54.0 °F - 52.9 °F 96% 30.13 in 10.0 mi SSE 5.8 mph - N/A   Clear
3:56 AM 55.9 °F - 54.0 °F 93% 30.14 in 10.0 mi South 4.6 mph - N/A   Clear
4:56 AM 54.9 °F - 54.0 °F 97% 30.16 in 10.0 mi SSE 4.6 mph - N/A   Clear
5:56 AM 54.9 °F - 54.0 °F 97% 30.18 in 10.0 mi East 5.8 mph - N/A   Clear
6:56 AM 54.0 °F - 54.0 °F 100% 30.20 in 8.0 mi Calm Calm - N/A   Clear
7:09 AM 53.6 °F - 53.6 °F 100% 30.20 in 1.5 mi Calm Calm - N/A   Clear
7:11 AM 53.6 °F - 53.6 °F 100% 30.20 in 1.0 mi Calm Calm - N/A   Clear
7:14 AM 53.6 °F - 53.6 °F 100% 30.21 in 0.5 mi Calm Calm - N/A Fog Fog
7:30 AM 53.6 °F - 53.6 °F 100% 30.21 in 1.0 mi Calm Calm - N/A   Clear
7:35 AM 51.8 °F - 51.8 °F 100% 30.21 in 1.5 mi SE 3.5 mph - N/A   Clear
7:41 AM 51.8 °F - 51.8 °F 100% 30.21 in 3.0 mi SE 3.5 mph - N/A   Clear
7:56 AM 54.9 °F - 54.9 °F 100% 30.22 in 5.0 mi Calm Calm - N/A   Clear
8:56 AM 63.0 °F - 59.0 °F 87% 30.23 in 10.0 mi South 8.1 mph - N/A   Clear
9:56 AM 68.9 °F - 59.9 °F 73% 30.24 in 10.0 mi SSW 5.8 mph - N/A   Clear
10:56 AM 75.9 °F - 61.0 °F 60% 30.23 in 10.0 mi SSW 8.1 mph - N/A   Clear
11:56 AM 79.0 °F - 59.0 °F 50% 30.22 in 10.0 mi SSW 11.5 mph - N/A   Clear
12:56 PM 81.0 °F 81.0 °F 56.8 °F 44% 30.20 in 10.0 mi South 11.5 mph - N/A   Clear
1:56 PM 82.9 °F 82.0 °F 54.9 °F 38% 30.17 in 10.0 mi SSW 12.7 mph 17.3 mph N/A   Clear
2:56 PM 82.9 °F 82.0 °F 54.9 °F 38% 30.15 in 10.0 mi SSW 12.7 mph - N/A   Clear
3:56 PM 82.9 °F 81.9 °F 54.0 °F 37% 30.14 in 10.0 mi SW 13.8 mph - N/A   Clear
4:56 PM 81.9 °F 81.2 °F 54.9 °F 39% 30.13 in 10.0 mi SSW 10.4 mph - N/A   Clear
5:56 PM 79.9 °F - 55.9 °F 44% 30.13 in 10.0 mi South 6.9 mph - N/A   Clear
6:56 PM 72.0 °F - 59.0 °F 64% 30.14 in 10.0 mi SE 6.9 mph - N/A   Partly Cloudy
7:56 PM 68.0 °F - 57.9 °F 70% 30.14 in 7.0 mi South 4.6 mph - N/A   Clear
9:56 PM 65.8 °F - 56.8 °F 73% 30.17 in 10.0 mi SSW 4.6 mph - N/A   Clear
10:56 PM 63.0 °F - 56.8 °F 80% 30.17 in 9.0 mi South 4.6 mph - N/A   Clear
11:56 PM 59.9 °F - 55.9 °F 87% 30.16 in 10.0 mi South 6.9 mph - N/A   Clear